This demonstration page uses our WeatherBlox Daily Observations layout. Learn more.

39.92423, -83.80882

Hourly Observations for August 1, 2017

Temp ( °F °C ) Dew Point ( °F °C ) Humidity (%) Winds ( mph kmh ) Pressure ( in mb ) Visibility ( mi km ) Precip ( " mm )
12:56 am 00:56 Clear 64 17.8 62 16.7 93 93 Calm 30.14 1021 10 16.0934 0 0
1:56 am 01:56 Clear 61 16.1 60 15.6 97 97 ENE 3 6 30.13 1020 9 14.48406 0 0
2:56 am 02:56 Clear 61 16.1 60 15.6 97 97 Calm 30.13 1020 10 16.0934 0 0
3:56 am 03:56 Clear 61 16.1 60 15.6 97 97 Calm 30.13 1020 7 11.26538 0 0
4:56 am 04:56 Clear 60 15.6 58 14.4 93 93 Calm 30.13 1020 10 16.0934 0 0
5:56 am 05:56 Clear with Mist and Fog 59 15 58 14.4 96 96 Calm 30.14 1021 6 9.65604 0 0
6:56 am 06:56 Sunny with Mist and Fog 60 15.6 58 14.4 93 93 undefined N/A 30.14 1021 3 4.82802 0 0
7:04 am 07:04 Sunny with Mist and Fog 61 16 59 15 94 94 undefined N/A 30.15 1021 2.5 4.02335 0 0
7:12 am 07:12 Sunny with Mist and Fog 61 16 59 15 94 94 Calm 30.15 1021 6 9.65604 0 0
7:56 am 07:56 Sunny 65 18.3 64 17.8 97 97 Calm 30.14 1021 7 11.26538 0 0
8:56 am 08:56 Sunny 72 22.2 65 18.3 79 79 E 3 6 30.15 1021 10 16.0934 0 0
9:56 am 09:56 Sunny 74 23.3 65 18.3 74 74 Calm 30.15 1021 10 16.0934 0 0
10:56 am 10:56 Sunny 77 25 64 17.8 64 64 undefined N/A 30.14 1021 10 16.0934 0 0
11:56 am 11:56 Sunny 78 25.6 65 18.3 64 64 S 3 6 30.14 1021 10 16.0934 0 0
12:56 pm 12:56 Sunny 79 26.1 65 18.3 62 62 VRB 3 6 30.14 1021 10 16.0934 0 0
1:56 pm 13:56 Sunny 79 26.1 65 18.3 62 62 S 5 7 30.13 1020 10 16.0934 0 0
2:56 pm 14:56 Sunny 82 27.8 64 17.8 55 55 S 7 11 30.11 1020 10 16.0934 0 0
3:56 pm 15:56 Sunny 81 27.2 64 17.8 57 57 S 6 9 30.09 1019 10 16.0934 0 0
4:56 pm 16:56 Sunny 80 26.7 64 17.8 58 58 SSE 5 7 30.07 1018 10 16.0934 0 0
5:56 pm 17:56 Sunny 81 27.2 63 17.2 54 54 S 7 11 30.07 1018 10 16.0934 0 0
6:56 pm 18:56 Sunny 80 26.7 63 17.2 56 56 SSW 5 7 30.06 1018 10 16.0934 0 0
7:56 pm 19:56 Sunny 79 26.1 63 17.2 58 58 Calm 30.13 1020 10 16.0934 0 0
8:56 pm 20:56 Clear 71 21.7 64 17.8 79 79 SE 3 6 30.06 1018 10 16.0934 0 0
9:56 pm 21:56 Mostly Clear 67 19.4 64 17.8 91 91 Calm 30.08 1019 10 16.0934 0 0
10:56 pm 22:56 Clear 68 20 63 17.2 84 84 SSE 7 11 30.09 1019 10 16.0934 0 0
11:56 pm 23:56 Clear 65 18.3 63 17.2 93 93 Calm 30.09 1019 10 16.0934 0 0

Powered by AerisWeather